User: anonymous   Login
Location: Unspecified
(0.0000°N, 0.0000°E)
Time: 04:12:39
(UTC+00:00)
Language:

TBA - TO BE ASSIGNED - Orbit

View from above orbital plane
View from above orbital plane
View from above satellite
View from above satellite

Ground track
Ground track

The orbit is defined by the following mean orbital elements,

1 67934U          26145.23548051 +.00000000 +00000-0 +18012-3 0 00003
2 67934  43.0013 118.7607 0002054 286.5826  73.4800 15.27493898    08
Epoch (UTC): 25 May 2026 05:39:05
Eccentricity: 0.0002054
inclination: 43.0013°
perigee height: 482 km
apogee height: 485 km
right ascension of ascending node: 118.7607°
argument of perigee: 286.5826°
revolutions per day: 15.27493898
mean anomaly at epoch: 73.4800°

The dashed part of the orbit path shows where the satellite is in the earth's shadow,  

DLR